Location: ?????
(33.0995°N, 35.2889°E)
Time: 12:27:42
(UTC+00:00)

Daily predictions for brighter satellites

Satellite Brightness Start Highest point End
(mag) Time Altitude Azimuth Time Altitude Azimuth Time Altitude Azimuth
USA 238 DEB 4.1 16:48:06 10° S 16:54:00 37° ESE 17:00:03 10° NE
USA 238 4.1 16:48:15 10° S 16:54:07 36° ESE 17:00:09 10° NE
SL-08 RB Rocket 4.5 16:50:27 10° SE 16:54:37 34° ENE 16:58:49 10° N
Cosmos 1782 2.8 16:50:57 10° N 16:54:58 71° E 16:58:58 10° SSE
CSL-04 Rocket 3.9 16:50:40 10° S 16:55:56 76° WSW 17:01:14 10° NNW
CZ-4 R/B 3.6 16:55:45 10° SSW 16:59:07 28° W 17:02:34 10° NW
SJ-11-01 4.4 16:56:43 10° S 17:01:26 83° WSW 17:06:12 10° NNW
BREEZE M DEB (TANK) 4.4 17:01:52 10° W 17:02:53 12° SW 17:03:53 10° SSW
ARGOS 3.2 16:59:21 10° SSE 17:04:41 67° ENE 17:10:01 10° N
CENTAUR R/B 3.4 17:01:24 10° SSE 17:05:33 22° ESE 17:10:06 10° ENE
Cosmos 1805 Rocket 3.7 17:01:57 10° S 17:06:16 55° E 17:10:38 10° NNE
Ariane Rocket 3.2 17:03:56 10° SSE 17:08:48 50° ENE 17:13:41 10° N
Yuri Rocket 4.2 17:05:59 10° SW 17:09:49 25° SSE 17:12:36 13° ESE
FREGAT/IRIS 3.2 17:07:51 12° SE 17:09:55 29° ENE 17:12:16 10° NNE
Cosmos 972 Rocket 3.8 17:05:24 10° N 17:10:17 71° ENE 17:15:16 10° SSE
Cosmos 2082 Rocket 2.3 17:05:31 10° S 17:11:05 58° ESE 17:16:39 10° NNE
COSMOS 2406 4.2 17:05:33 10° SW 17:11:07 52° WNW 17:16:43 10° N
Cosmos 1992 Rocket 4.4 17:07:21 10° NNW 17:12:32 65° WSW 17:17:40 10° S
CZ-2C R/B 2.6 17:08:13 10° NNE 17:13:21 57° E 17:18:32 10° S
Skynet4D Del rocket 4.0 17:08:19 10° WSW 17:13:23 44° S 17:17:43 14° ESE
Cosmos 407 Rocket 3.5 17:08:11 10° SSW 17:13:30 84° ESE 17:18:49 10° NNE
deb Kosmos-1763 4.3 17:10:46 10° S 17:14:11 44° ESE 17:17:39 10° NNE
Cosmos 1190 Rocket 4.0 17:10:23 10° S 17:15:35 69° ESE 17:20:52 10° NNE
IRIDIUM 106 4.4 17:11:56 10° SSE 17:16:59 54° E 17:22:04 10° NNE
Cosmos 1633 Rocket 3.8 17:20:17 10° SSE 17:24:12 32° E 17:28:06 10° NNE
Cosmos 1140 Rocket 3.4 17:20:13 10° SSW 17:25:27 83° ESE 17:30:43 10° NNE
MetOp-A 4.4 17:21:46 10° SSE 17:26:49 50° ENE 17:31:59 10° N
BREEZE-M DEB (TANK) 2.6 17:22:53 10° NW 17:27:47 43° NNE 17:29:15 22° E
Intercosmos 25 3.5 17:30:47 10° N 17:33:57 37° E 17:35:01 27° ESE
Cosmos 1818 3.6 17:29:03 10° NNW 17:34:29 66° ENE 17:38:14 20° SE
Aureole 1 Rocket 4.3 17:29:36 10° S 17:36:02 73° ESE 17:44:04 10° NNE
ATLAS 5 CENTAUR R/B 2.8 17:32:41 10° NW 17:38:49 68° WSW 17:45:23 12° SSE
Cosmos 2084 Rocket 4.1 17:35:48 10° S 17:39:27 30° ESE 17:43:09 10° NE
NOSS 3-2 (A) 3.3 17:40:05 10° SSW 17:45:33 85° WNW 17:51:40 10° NNE
Cosmos 1707 Rocket 3.7 17:42:03 10° N 17:46:17 52° E 17:48:15 28° SE
Cosmos 1980 Rocket 3.0 17:42:12 10° N 17:47:20 34° ENE 17:49:29 26° ESE
USA 186 3.2 17:45:52 12° SSW 17:47:30 24° W 17:49:24 10° NW
OBJECT-B 0.9 17:46:56 40° SE 17:47:44 53° ENE 17:50:58 10° N
H-2A R/B 4.4 17:45:04 10° NE 17:48:22 28° E 17:48:22 28° E
Cosmos 1656 4.2 17:45:24 10° NNW 17:50:46 55° WSW 17:56:04 11° S
Cosmos 1833 Rocket 4.5 17:46:09 10° SW 17:51:10 33° WNW 17:56:13 10° N
Cosmos 1470 Rocket 4.2 17:51:08 33° ESE 17:51:51 35° E 17:55:51 10° NNE
Genesis I 4.3 17:48:46 10° N 17:52:10 28° NE 17:52:42 27° ENE
CZ-2C R/B 3.6 17:49:52 10° NNE 17:54:26 89° SE 17:58:54 10° SSW
NOSS 3-2 (C) 3.1 17:49:24 10° SSW 17:54:48 65° ESE 18:00:48 10° NE
USA 267 3.1 17:49:36 10° NE 17:56:09 76° SE 18:02:41 10° SW
H-2A R/B 4.1 17:52:55 10° SSW 17:57:09 26° W 18:01:19 10° NW
SJ-6B 3.7 17:54:22 12° S 17:58:02 49° W 18:01:56 10° NNW
Sich 1 4.1 17:54:07 10° SSW 17:58:21 46° W 18:02:38 10° N
SL-8 R/B 4.4 17:55:48 10° WNW 18:00:25 46° SW 18:02:30 28° S
Cosmos 1697 Rocket 2.6 17:55:08 10° NNW 18:00:46 90° WSW 18:03:55 27° SSE
Cosmos 1184 Rocket 2.6 18:00:32 67° SE 18:00:51 74° E 18:04:07 10° NNE
Cosmos 1934 Rocket 3.9 17:55:20 10° S 18:01:40 80° E 18:08:03 10° N
Shenzhou-11 Module 3.1 18:01:23 10° NW 18:02:54 33° NW 18:02:54 33° NW
Cosmos 405 Rocket 4.2 18:07:16 23° NE 18:07:16 23° NE 18:09:04 10° NNE
Meteor 1-4 Rocket 2.5 18:04:07 10° N 18:07:15 57° NE 18:07:15 57° NE
USA 32 4.1 18:07:13 38° SE 18:08:49 53° E 18:13:53 10° NNE
Cosmos 1850 Rocket 4.2 18:10:10 42° SE 18:11:00 46° ESE 18:16:03 10° NNE
Resurs 01 Rocket 1.6 18:10:13 51° ESE 18:11:01 62° ENE 18:15:23 10° N
Cosmos 1862 Rocket 3.7 18:09:26 10° N 18:13:44 50° E 18:13:47 50° E
Meteor 2-20 4.3 18:10:43 10° N 18:16:52 86° E 18:20:03 31° S
Cosmos 1812 4.4 18:13:32 10° NNW 18:16:57 31° W 18:19:36 14° SSW
Meteor 1-27 Rocket 4.2 18:16:00 10° NNW 18:21:54 65° W 18:25:45 22° S
SPOT 3 Rocket 3.8 18:21:10 31° S 18:23:39 68° WSW 18:28:50 10° NNW
ATLAS 3B R/B 3.6 18:27:32 28° ENE 18:27:32 28° ENE 18:31:06 10° NE
GP-B 3.1 18:23:17 10° N 18:27:26 66° ENE 18:27:26 66° ENE
Cosmos 192 4.2 18:26:24 10° NNW 18:31:18 73° ENE 18:31:31 72° E
CZ-3A R/B 4.2 18:01:29 10° W 18:32:11 48° SSW 18:36:31 34° SSE
Cosmos 1933 Rocket 3.7 18:33:08 63° NE 18:33:08 63° NE 18:36:57 10° N
IGS 5A 4.5 18:39:20 37° NNE 18:39:20 37° NNE 18:42:06 10° N
Meteor 1-14 Rocket 4.2 18:40:47 64° ESE 18:40:59 65° E 18:46:50 10° NNE
MetOp-B 3.9 18:41:17 74° SE 18:41:44 82° ENE 18:47:06 10° N
Spot 2 Rocket 3.6 18:45:23 61° NE 18:45:23 61° NE 18:50:00 10° N
Cosmos 1741 Rocket 4.0 18:47:38 60° SW 18:48:33 78° WNW 18:53:50 10° NNE
USA 245 4.4 18:49:21 67° SE 18:50:15 80° ENE 18:56:35 10° N
SL-16 R/B 3.2 18:47:58 10° N 18:52:22 33° NE 18:52:22 33° NE
CENTAUR R/B 3.3 18:50:07 10° SW 18:55:32 46° NW 19:01:53 10° NNE
Terra 3.8 19:01:13 19° NNE 19:01:13 19° NNE 19:03:04 10° NNE
Cosmos 2100 Rocket 4.4 19:00:45 47° NE 19:00:45 47° NE 19:05:29 10° NNE
Meteor 1-18 Rocket 4.3 18:56:38 10° N 19:01:32 67° NNE 19:01:32 67° NNE
Molniya-1 4.5 19:05:02 75° SSW 19:05:35 87° ESE 19:17:59 10° NNE
Cosmos 2173 Rocket 4.4 19:08:24 47° NE 19:08:24 47° NE 19:12:59 10° NNE
Lacrosse 5 3.1 19:02:44 10° NNW 19:06:26 33° NNE 19:06:26 33° NNE
Cosmos 2322 Rocket 3.2 19:06:37 10° N 19:10:41 35° NNE 19:10:41 35° NNE
Cosmos 1763 Rocket 4.2 19:08:29 10° NNW 19:12:26 49° N 19:12:26 49° N
ATLAS 2A CENTAUR R/B 4.4 18:55:09 10° SW 19:15:55 37° S 19:15:55 37° S
Cosmos 1459 Rocket 4.3 19:23:40 60° NNE 19:23:40 60° NNE 19:28:47 10° N
Cosmos 2360 Rocket 3.9 19:17:52 10° N 19:20:54 22° NE 19:20:54 22° NE
NOSS 3-3 (A) 4.5 19:16:10 10° NNW 19:24:04 81° WSW 19:24:51 73° S
NOSS 3-3 (C) 4.5 19:16:16 10° NNW 19:24:10 81° WSW 19:24:57 74° S
Cosmos 1980 Rocket 3.8 19:26:30 10° NW 19:31:05 26° WSW 19:31:16 26° WSW
Cosmos 2333 Rocket 4.4 19:55:37 10° N 19:57:45 17° NNE 19:57:45 17° NNE
USA 234 4.0 20:10:47 47° N 20:10:47 47° N 20:15:50 10° NNW
ATLAS 3B R/B 3.8 20:14:38 34° WNW 20:15:45 36° NW 20:21:46 10° NNE
SL-16 R/B 4.4 20:32:22 10° NW 20:34:14 18° WNW 20:34:14 18° WNW
Cosmos 2219 Rocket 4.3 20:33:02 10° N 20:35:05 21° N 20:35:05 21° N
Cosmos 2263 Rocket 4.4 22:49:30 19° NE 22:49:30 19° NE 22:51:15 10° NE
Resurs 1-4 Rocket 4.4 22:42:50 10° NNE 22:44:27 19° NE 22:44:27 19° NE
SL-16 R/B 4.4 22:44:30 10° NNW 22:46:19 21° N 22:46:19 21° N
SL-16 R/B 3.9 22:52:56 35° NE 22:52:56 35° NE 22:57:10 10° N
ADEOS II 4.0 23:16:56 10° NNE 23:19:37 25° NE 23:19:37 25° NE
Cosmos 1943 4.3 23:45:01 10° N 23:50:16 39° ENE 23:50:49 38° E
CZ-2D R/B 3.7 23:45:27 10° N 23:48:16 28° NNW 23:48:16 28° NNW
ARIANE 5 R/B 4.0 23:46:51 10° NNE 23:50:53 33° E 23:50:53 33° E
